#timestamp,LO_Frequency,Hit 
1500757215.7,286047010.6,N
1500757235.5,286047008.3,N
1500757255.4,286047008.6,N
1500757275.2,286047007.8,N
1500757295.0,286047008.0,N
1500757295.9,286047008.0,N
1500757315.8,286047008.1,N
1500757335.6,286047007.7,N
1500757355.5,286047007.7,N
1500757375.3,286047007.8,N
1500757395.1,286047008.1,N
1500757415.9,286047010.5,N
1500757435.7,286047008.2,N
1500757455.5,286047010.0,N
1500757475.4,286047008.1,N
1500757495.2,286047010.6,N
1500757515.1,286047007.8,N
1500757516.0,286047007.8,N
1500757535.8,286047010.8,N
1500757555.6,286047010.2,N
1500757575.5,286047007.9,N
1500757595.3,286047008.6,N
1500757615.2,286047008.0,N
1500757635.9,286047008.6,N
1500757655.7,286047007.9,N
1500757675.6,286047007.9,N
1500757695.4,286047007.8,N
1500757715.2,286047007.7,N
1500757735.1,286047009.7,N
1500757736.0,286047009.7,N
1500757755.8,286047010.6,N
1500757775.7,286047010.5,N
1500757795.5,286047008.2,N
1500757815.3,286047007.8,N
1500757835.2,286047007.8,N
1500757855.0,286047008.2,N
1500757855.9,286047011.9,N
1500757875.8,286047008.0,N
1500757895.6,286047008.2,N
1500757915.4,286047010.8,N
1500757935.3,286047008.3,N
1500757955.1,286047010.7,N
1500757975.8,286047010.0,N
1500757995.7,286047010.7,N
1500758015.5,286047010.8,N
1500758035.4,286047010.5,N
1500758055.2,286047008.1,N
1500758075.0,286047010.5,N
1500758075.9,286047010.5,N
1500758095.8,286047010.8,N
1500758115.6,286047010.6,N
1500758135.5,286047010.6,N
1500758155.3,286047010.2,N
1500758175.1,286047009.8,N
1500758195.9,286047010.6,N
1500758215.7,286047010.5,N
1500758235.6,286047010.5,N
1500758255.4,286047010.0,N
1500758275.2,286047009.9,N
1500758295.1,286047010.5,N
1500758296.0,286047010.5,N
1500758315.8,286047010.5,N
1500758335.7,286047009.4,N
1500758355.5,286047009.6,N
1500758375.3,286047010.2,N
1500758395.2,286047007.8,N
1500758415.0,286047010.6,N
1500758415.9,286047010.6,N
1500758435.8,286047008.1,N
1500758455.6,286047007.8,N
1500758475.4,286047010.2,N
1500758495.3,286047008.1,N
1500758515.1,286047008.1,N
1500758535.8,286047010.8,N
1500758555.7,286047007.8,N
1500758575.5,286047007.7,N
1500758595.4,286047010.4,N
1500758615.2,286047007.7,N
1500758635.0,286047010.4,N
1500758635.9,286047010.4,N
1500758655.8,286047010.1,N
1500758675.6,286047010.8,N
1500758695.5,286047010.6,N
1500758715.3,286047010.8,N
1500758735.1,286047010.3,N
1500758755.9,286047010.5,N
1500758775.7,286047012.0,N
1500758795.6,286047009.8,N
1500758815.4,286047009.6,N
1500758835.2,286047012.4,N
1500758855.1,286047012.3,N
1500758856.0,286047012.3,N
1500758875.8,286047009.5,N
1500758895.6,286047010.1,N
1500758915.5,286047009.7,N
1500758935.3,286047009.9,N
1500758955.2,286047010.7,N
1500758975.9,286047010.5,N
1500758995.7,286047009.9,N
1500759015.6,286047009.3,N
1500759035.4,286047012.4,N
1500759055.3,286047010.0,N
1500759075.1,286047009.6,N
1500759076.0,286047009.6,N
1500759095.8,286047012.4,N
1500759115.7,286047009.4,N
1500759135.5,286047009.3,N
1500759155.3,286047012.0,N
1500759175.2,286047012.1,N
1500759195.0,286047011.6,N
1500759195.9,286047011.6,N
1500759215.8,286047009.4,N
1500759235.6,286047012.3,N
1500759255.4,286047009.8,N
1500759275.3,286047009.5,N
1500759295.1,286047010.3,N
1500759315.9,286047010.8,N
1500759335.7,286047010.8,N
1500759355.5,286047010.4,N
1500759375.4,286047010.7,N
1500759395.2,286047010.6,N
1500759415.0,286047007.8,N
1500759415.9,286047007.8,N
1500759435.8,286047008.4,N
1500759455.6,286047008.8,N
1500759475.5,286047006.7,N
1500759495.3,286047006.8,N
1500759515.1,286047006.4,N
1500759535.9,286047007.0,N
1500759555.7,286047007.4,N
1500759575.5,286047007.2,N
1500759595.4,286047007.3,N
1500759615.2,286047007.5,N
1500759635.1,286047004.6,N
1500759636.0,286047004.6,N
1500759655.8,286047004.7,N
1500759675.6,286047005.7,N
1500759695.5,286047005.5,N
1500759715.3,286047005.3,N
1500759735.2,286047005.1,N
1500759755.9,286047005.8,N
1500759775.7,286047006.0,N
1500759795.6,286047004.2,N
1500759815.4,286047003.7,N
1500759835.2,286047001.4,N
1500759855.1,286047001.7,N
1500759856.0,286047001.7,N
1500759875.8,286047004.0,N
1500759895.7,286047004.2,N
1500759915.5,286047001.8,N
1500759935.3,286047003.9,N
1500759955.2,286047004.4,N
1500759975.0,286047001.4,N
1500759975.9,286047001.4,N
1500759995.8,286047004.4,N
1500760015.6,286047001.7,N
1500760035.4,286047004.4,N
1500760055.3,286047001.7,N
1500760075.1,286047001.5,N
1500760095.9,286047002.7,N
1500760115.7,286047000.2,N
1500760135.5,286046999.8,N
1500760155.4,286047002.4,N
1500760175.2,286047002.6,N
1500760195.1,286047002.6,N
1500760196.0,286047002.6,N
1500760215.8,286047002.8,N
1500760235.6,286046999.7,N
1500760255.5,286047002.4,N
1500760275.3,286047000.4,N
1500760295.2,286047002.7,N
1500760315.9,286047003.9,N
1500760335.7,286047004.3,N
1500760355.6,286047001.6,N
1500760375.4,286047002.3,N
1500760395.2,286047002.7,N
1500760415.1,286047000.1,N
1500760416.0,286047000.1,N
1500760435.8,286047002.8,N
1500760455.7,286047000.2,N
1500760475.5,286047002.8,N
1500760495.3,286047000.6,N
1500760515.2,286047000.4,N
1500760535.0,286047000.9,N
1500760535.9,286047000.9,N
1500760555.7,286047000.8,N
1500760575.6,286046998.5,N
1500760595.4,286046998.3,N
1500760615.3,286046998.6,N
1500760635.1,286046998.3,N
1500760655.9,286046998.4,N
1500760675.7,286046998.2,N
1500760695.5,286046998.2,N
1500760715.4,286046998.7,N
1500760735.2,286047001.1,N
1500760755.0,286046999.0,N
1500760755.9,286046999.0,N
1500760775.8,286046998.2,N
1500760795.6,286046998.7,N
